Location: Newark
(7.0858°N, 171.3717°E)
Time: 13:36:18
(UTC+00:00)

Vanguard 1 Rocket - Pass Details

Date: 26 November 2020
Orbit: 655 x 4222 km, 34.3° (Epoch: 23 January)

Event Time Altitude Azimuth Distance (km) Brightness Sun altitude
Rises 07:47:02 0° 197° (SSW) 5,535 11.9 -22.4°
Reaches altitude 10° 07:52:18 10° 178° (S) 5,165 11.4 -23.6°
Maximum altitude 08:02:26 18° 139° (SE) 5,485 11.1 -26.0°
Enters shadow 08:11:44 14° 112° (ESE) 6,535 11.3 -28.1°
